Regional Weather Roundup
Issued by NWS

Home | Current Version | Previous Version | Text Only | Print | Product List | Glossary Off
Versions: 1 2 3 4 5 6 7 8 9 10 11 12 13 14 15 16 17 18 19 20 21 22 23 24 25 26 27 28 29 30 31 32 33 34 35 36 37 38 39 40 41 42 43 44 45 46 47 48 49 50

000
ASUS43 KDMX 310107
RWRIA

WEATHER ROUNDUP FOR IOWA
NATIONAL WEATHER SERVICE DES MOINES IA
800 PM CDT THU JUL 30 2015

NOTE: "FAIR" INDICATES FEW OR NO CLOUDS BELOW 12,000 FEET WITH NO
SIGNIFICANT WEATHER AND/OR OBSTRUCTIONS TO VISIBILITY.

* - THESE STATIONS ARE NOT NWS STATIONS...THUS NOT UNDER NWS
QUALITY CONTROL.  THEY ALSO DO NOT REPORT WEATHER SUCH
AS PRECIPITATION OR FOG.

IAZ001>003-012>014-020>022-031>034-043>046-310200-
   NORTHWEST IOWA

CITY           SKY/WX    TMP DP  RH WIND       PRES   REMARKS
CARROLL *      CLEAR     77  70  78 SW6       30.10S
CHEROKEE *     CLEAR     81  70  69 CALM      30.09F HX  84
DENISON *      HAZE      79  68  69 CALM      30.09S VSB 3/4 HX  81
LE MARS *      CLEAR     82  72  69 CALM      30.10S HX  87
ORANGE CITY *  CLEAR     79  70  73 CALM      30.10F HX  81
SHELDON *      CLEAR     81  70  69 W3        30.09S HX  84
SIOUX CITY     CLEAR     83  72  69 S3        30.08F HX  88
SPENCER        CLEAR     81  69  67 W5        30.09F HX  84
STORM LAKE *   CLEAR     79  70  73 W5        30.11F HX  81
$$

IAZ055>058-069>071-079>083-090>094-310200-
   SOUTHWEST IOWA

CITY           SKY/WX    TMP DP  RH WIND       PRES   REMARKS
ATLANTIC *     CLEAR     81  72  74 CALM      30.11S HX  84
AUDUBON *      CLEAR     79  70  73 CALM      30.13S HX  81
CLARINDA *     CLEAR     81  72  74 S3        30.13S HX  84
COUNCIL BLFS * CLEAR     82  64  54 SW8       30.11S HX  84
CRESTON *      CLEAR     79  68  69 CALM      30.14S HX  81
HARLAN  *      CLEAR     81  73  78 CALM      30.14F HX  85
LAMONI         CLEAR     81  66  60 SW6       30.13S HX  83
RED OAK *      CLEAR     81  72  74 S3        30.11F HX  84
SHENANDOAH *   CLEAR     81  73  78 S5        30.12S HX  85
$$

IAZ047>049-059>061-072>074-084-310200-
   CENTRAL IOWA

CITY           SKY/WX    TMP DP  RH WIND       PRES   REMARKS
AMES           PTCLDY    78  66  66 W7        30.08F HX  80
ANKENY *       CLEAR     81  66  61 W5        30.09S HX  83
CHARITON *     CLEAR     79  66  65 W6        30.11S HX  81
DES MOINES     PTCLDY    82  65  56 W6        30.09S HX  84
GRINNELL*      CLEAR     79  66  65 W6        30.09S HX  81
KNOXVILLE *    CLEAR     79  66  65 W6        30.09S HX  81
MARSHALLTOWN   CLEAR     78  70  76 W5        30.07S HX  80
PELLA *        CLEAR     79  70  73 W5        30.10S HX  81
PERRY *          N/A     79  70  73 W6        30.09F HX  81
$$

IAZ004>006-015-016-023>025-035-036-310200-
   NORTH CENTRAL IOWA

CITY           SKY/WX    TMP DP  RH WIND       PRES   REMARKS
ALGONA *       CLEAR     79  70  73 W5        30.08F HX  81
CLARION *      CLEAR     77  72  83 W5        30.08S
ESTHERVILLE    CLEAR     78  63  59 W6        30.08F HX  80
FORT DODGE *   CLEAR     79  66  65 SW5       30.09F HX  81
MASON CITY     CLEAR     80  67  64 W3        30.08F HX  82
FOREST CITY *  CLEAR     79  63  57 CALM      30.08S HX  80
IOWA FALLS *     N/A     79  70  73 W5        30.09S HX  81
$$

IAZ007>011-017>019-026>030-037>042-050>054-066-310200-
   NORTHEAST IOWA

CITY           SKY/WX    TMP DP  RH WIND       PRES   REMARKS
CEDAR RAPIDS   CLEAR     77  71  82 W5        30.06S
CHARLES CITY * CLEAR     75  70  83 CALM      30.07S
CLINTON *      CLEAR     75  68  78 W7        30.07S
DECORAH *      CLEAR     77  59  53 W3        30.05S
DUBUQUE        CLEAR     77  62  59 W5        30.06S
MONTICELLO *   CLEAR     79  64  61 NW5       30.05S HX  81
OELWEIN *      CLEAR     77  68  73 CALM      30.07S
WATERLOO       CLEAR     80  67  64 NW5       30.05S HX  82
$$

IAZ064-065-067-068-078-310200-
   EAST CENTRAL IOWA

CITY           SKY/WX    TMP DP  RH WIND       PRES   REMARKS
DAVENPORT      CLEAR     77  68  73 W6        30.05S
IOWA CITY      CLEAR     81  69  67 W6        30.07S HX  84
MT. PLEASANT * CLEAR     82  59  44 W3        30.08S HX  82
MUSCATINE *    CLEAR     81  68  65 W7        30.06S HX  83
QUAD CITIES    CLEAR     82  65  56 W8        30.04S HX  84
$$

IAZ062-063-075>077-085>089-095>099-310200-
   SOUTHEAST IOWA

CITY           SKY/WX    TMP DP  RH WIND       PRES   REMARKS
BURLINGTON     CLEAR     80  66  62 W3        30.07S HX  82
FAIRFIELD *    CLEAR     77  64  65 W6        30.08F
FORT MADISON * CLEAR     79  66  65 CALM      30.09S HX  81
KEOKUK *       CLEAR     81  68  65 W6        30.08S HX  83
OSKALOOSA *      N/A     75  68  78 W3        30.09S
CENTERVILLE *  CLEAR     77  68  73 SW3       30.13S
OTTUMWA        CLEAR     77  68  73 W3        30.07F
WASHINGTON *   CLEAR     79  70  73 CALM      30.09S HX  81
$$

ABBREVIATIONS USED IN REMARKS
   TC - TEMPERATURES IN CELSIUS
  WCI - WIND CHILL INDEX
   HX - HEAT INDEX
  VSB - VISIBILITY
$$



USA.gov is the U.S. government's official web portal to all federal, state and local government web resources and services.